Station Historical Data
Daily Summary for April 3, 2017 Units:  Metric    English   Both
« Previous Day
Next Day »
Daily Weekly Monthly Yearly Custom
  High: Low: Average:
Temperature: 21.1 °C 3 °C 12.4 °C
Dew Point: 10.5 °C -0.5 °C 3.6 °C
Humidity: 88% 31% 58%
Wind Speed: 25.7km/h 0km/h 4.8km/h
Wind Gust: 30.6km/h - -
Wind- - East
Pressure: 1019.2 hPa 998.9 hPa -
Precipitation: 0 mm    
Historical Graphs
 
 
Tabular Data for April 3, 2017
Time Temperature Dew Point Pressure Wind Wind Speed Wind Gust Humidity Rainfall Rate (Hourly)
00:04 3.9 °C 0.2 °C 1019.2 hPa Calm   1.6 km/h 77% 0 mm
00:09 3.8 °C 0.1 °C 1019.2 hPa Calm   1.6 km/h 77% 0 mm
00:19 3.7 °C 0.2 °C 1019.2 hPa Calm   3.2 km/h 78% 0 mm
00:24 3.6 °C 0.1 °C 1019.2 hPa Calm     78% 0 mm
00:29 3.8 °C 0.3 °C 1019.2 hPa Calm     78% 0 mm
00:34 3.8 °C 0.1 °C 1018.8 hPa Calm     77% 0 mm
00:39 3.7 °C 0.1 °C 1018.8 hPa Calm     77% 0 mm
00:44 3.7 °C 0.1 °C 1018.8 hPa Calm     77% 0 mm
00:49 3.6 °C -0.1 °C 1018.8 hPa Calm     77% 0 mm
00:54 3.6 °C 0.1 °C 1018.8 hPa Calm     78% 0 mm
00:59 3.7 °C 0 °C 1018.8 hPa Calm     77% 0 mm
01:04 3.6 °C -0.1 °C 1018.8 hPa Calm     77% 0 mm
01:09 3.4 °C -0.1 °C 1018.8 hPa Calm     78% 0 mm
01:14 3.3 °C -0.2 °C 1018.8 hPa Calm     78% 0 mm
01:19 3.2 °C -0.1 °C 1018.8 hPa Calm     79% 0 mm
01:24 3.4 °C -0.1 °C 1018.8 hPa Calm     78% 0 mm
01:29 3.4 °C -0.2 °C 1018.8 hPa Calm     77% 0 mm
01:34 3.3 °C -0.4 °C 1018.8 hPa Calm     77% 0 mm
01:39 3.2 °C -0.3 °C 1018.8 hPa Calm     78% 0 mm
01:44 3.3 °C -0.2 °C 1018.5 hPa Calm     78% 0 mm
01:49 3.4 °C -0.1 °C 1018.5 hPa Calm     78% 0 mm
01:54 3.4 °C -0.1 °C 1018.5 hPa Calm     78% 0 mm
01:59 3.4 °C -0.1 °C 1018.5 hPa Calm     78% 0 mm
02:04 3.5 °C 0.2 °C 1018.2 hPa Calm     79% 0 mm
02:09 3.5 °C 0.2 °C 1018.2 hPa Calm     79% 0 mm
02:14 3.5 °C 0.2 °C 1017.8 hPa Calm     79% 0 mm
02:19 3.4 °C -0.1 °C 1017.8 hPa Calm     78% 0 mm
02:24 3.3 °C 0.1 °C 1017.8 hPa Calm     79% 0 mm
02:29 3.2 °C -0.1 °C 1017.5 hPa Calm     79% 0 mm
02:34 3.3 °C 0.1 °C 1017.5 hPa Calm     79% 0 mm
02:39 3.3 °C -0.2 °C 1017.8 hPa Calm     78% 0 mm
02:44 3.2 °C -0.5 °C 1017.8 hPa Calm     77% 0 mm
02:49 3 °C -0.4 °C 1017.5 hPa Calm     78% 0 mm
02:54 3 °C -0.3 °C 1017.5 hPa Calm   3.2 km/h 79% 0 mm
02:59 3.3 °C -0.4 °C 1017.2 hPa SSW 1.6 km/h 1.6 km/h 77% 0 mm
03:04 3.4 °C -0.3 °C 1017.2 hPa Calm   3.2 km/h 77% 0 mm
03:09 3.5 °C -0.3 °C 1017.2 hPa Calm     76% 0 mm
03:14 3.5 °C -0.5 °C 1017.2 hPa Calm     75% 0 mm
03:19 3.6 °C -0.2 °C 1016.8 hPa Calm     76% 0 mm
03:24 3.8 °C -0.2 °C 1016.8 hPa Calm     75% 0 mm
03:29 3.9 °C -0.3 °C 1016.8 hPa Calm     74% 0 mm
03:34 4.1 °C -0.2 °C 1016.8 hPa Calm     74% 0 mm
03:39 4.1 °C -0.3 °C 1016.8 hPa Calm     73% 0 mm
03:44 4.2 °C -0.2 °C 1016.8 hPa Calm     73% 0 mm
03:49 4.4 °C -0.1 °C 1016.8 hPa Calm     73% 0 mm
03:54 4.5 °C -0.1 °C 1016.5 hPa Calm   3.2 km/h 72% 0 mm
03:59 4.6 °C 0.2 °C 1016.8 hPa Calm     73% 0 mm
04:04 4.7 °C 0.2 °C 1016.8 hPa Calm     73% 0 mm
04:09 4.6 °C 0 °C 1016.8 hPa Calm     72% 0 mm
04:14 4.7 °C 0.2 °C 1016.5 hPa Calm     73% 0 mm
04:19 4.8 °C 0.3 °C 1016.8 hPa Calm   3.2 km/h 73% 0 mm
04:24 4.9 °C 0.3 °C 1016.8 hPa Calm   3.2 km/h 72% 0 mm
04:29 4.9 °C 0.3 °C 1016.8 hPa Calm     72% 0 mm
04:34 4.8 °C 0.2 °C 1016.8 hPa Calm     72% 0 mm
04:39 4.9 °C 0.3 °C 1016.8 hPa Calm     72% 0 mm
04:44 5 °C 0.4 °C 1016.8 hPa Calm     72% 0 mm
04:49 5.1 °C 0.5 °C 1016.5 hPa Calm     72% 0 mm
04:54 5.2 °C 0.6 °C 1016.8 hPa Calm     72% 0 mm
04:59 5.2 °C 0.3 °C 1016.8 hPa Calm     71% 0 mm
05:04 5.2 °C 0.4 °C 1016.8 hPa Calm     71% 0 mm
05:09 5.2 °C 0.4 °C 1016.8 hPa Calm     71% 0 mm
05:14 5.2 °C 0.6 °C 1016.8 hPa Calm     72% 0 mm
05:19 5.2 °C 0.6 °C 1016.8 hPa Calm     72% 0 mm
05:24 5.3 °C 0.7 °C 1016.8 hPa Calm     72% 0 mm
05:29 5.4 °C 0.8 °C 1016.8 hPa Calm   3.2 km/h 72% 0 mm
05:34 5.6 °C 0.8 °C 1016.8 hPa Calm   3.2 km/h 71% 0 mm
05:39 5.6 °C 0.8 °C 1016.8 hPa Calm   3.2 km/h 71% 0 mm
05:44 5.7 °C 0.8 °C 1016.8 hPa Calm   1.6 km/h 71% 0 mm
05:49 5.8 °C 1 °C 1017.2 hPa Calm   1.6 km/h 71% 0 mm
05:54 5.8 °C 0.8 °C 1016.8 hPa Calm     70% 0 mm
05:59 6 °C 1.1 °C 1016.8 hPa Calm   3.2 km/h 71% 0 mm
06:04 6 °C 1.1 °C 1016.8 hPa Calm   1.6 km/h 71% 0 mm
06:09 6.1 °C 1 °C 1016.8 hPa Calm     70% 0 mm
06:14 6.1 °C 1.1 °C 1016.8 hPa East 3.2 km/h 3.2 km/h 70% 0 mm
06:19 6.3 °C 1.2 °C 1016.8 hPa East 4.8 km/h 4.8 km/h 70% 0 mm
06:24 6.3 °C 1.1 °C 1016.5 hPa Calm   4.8 km/h 69% 0 mm
06:29 6.4 °C 1.1 °C 1016.5 hPa East 3.2 km/h 4.8 km/h 69% 0 mm
06:34 6.5 °C 1.2 °C 1016.5 hPa East 1.6 km/h 8 km/h 69% 0 mm
06:39 6.6 °C 1.1 °C 1016.5 hPa East 3.2 km/h 8 km/h 68% 0 mm
06:44 6.7 °C 1.2 °C 1016.5 hPa ESE 1.6 km/h 6.4 km/h 68% 0 mm
06:49 6.8 °C 1.3 °C 1016.8 hPa ESE 3.2 km/h 6.4 km/h 68% 0 mm
06:54 6.8 °C 1.1 °C 1016.8 hPa ESE 1.6 km/h 4.8 km/h 67% 0 mm
06:59 6.9 °C 1.2 °C 1017.2 hPa Calm     67% 0 mm
07:04 7.1 °C 1.3 °C 1017.5 hPa Calm     67% 0 mm
07:09 7.1 °C 1.4 °C 1017.5 hPa Calm     67% 0 mm
07:14 7.1 °C 1.2 °C 1017.8 hPa Calm     66% 0 mm
07:19 7.2 °C 1.2 °C 1017.8 hPa Calm     66% 0 mm
07:24 7.3 °C 1.6 °C 1017.8 hPa ESE 1.6 km/h 3.2 km/h 67% 0 mm
07:29 7.4 °C 1.7 °C 1017.8 hPa SSW 4.8 km/h 8 km/h 67% 0 mm
07:34 7.4 °C 1.9 °C 1017.5 hPa Calm   6.4 km/h 68% 0 mm
07:39 7.4 °C 1.9 °C 1017.5 hPa South 1.6 km/h 6.4 km/h 68% 0 mm
07:44 7.6 °C 2.2 °C 1017.8 hPa Calm   3.2 km/h 69% 0 mm
07:49 7.6 °C 2.2 °C 1017.8 hPa Calm   3.2 km/h 69% 0 mm
07:54 7.5 °C 2.4 °C 1017.8 hPa Calm   3.2 km/h 70% 0 mm
07:59 7.6 °C 2.2 °C 1017.5 hPa East 1.6 km/h 4.8 km/h 69% 0 mm
08:04 7.6 °C 2.4 °C 1017.5 hPa NE 1.6 km/h 6.4 km/h 70% 0 mm
08:09 7.6 °C 2.2 °C 1017.5 hPa NE 3.2 km/h 4.8 km/h 69% 0 mm
08:14 7.7 °C 2.3 °C 1017.2 hPa NE 3.2 km/h 4.8 km/h 69% 0 mm
08:19 7.8 °C 2.3 °C 1017.2 hPa ENE 3.2 km/h 6.4 km/h 68% 0 mm
08:24 7.9 °C 2.2 °C 1017.2 hPa ENE 3.2 km/h 8 km/h 67% 0 mm
08:29 8.1 °C 2.3 °C 1017.2 hPa ENE 1.6 km/h 6.4 km/h 67% 0 mm
08:34 8.3 °C 2.5 °C 1017.2 hPa ENE 4.8 km/h 6.4 km/h 67% 0 mm
08:39 8.4 °C 2.7 °C 1017.2 hPa ENE 1.6 km/h 4.8 km/h 67% 0 mm
08:44 8.7 °C 2.7 °C 1016.8 hPa ENE 3.2 km/h 9.7 km/h 66% 0 mm
08:49 8.8 °C 2.6 °C 1016.5 hPa ENE 4.8 km/h 9.7 km/h 65% 0 mm
08:54 8.9 °C 2.7 °C 1016.1 hPa ENE 4.8 km/h 12.9 km/h 65% 0 mm
08:59 9 °C 2.8 °C 1016.1 hPa ENE 4.8 km/h 12.9 km/h 65% 0 mm
09:04 9.2 °C 2.9 °C 1015.8 hPa ENE 4.8 km/h 11.3 km/h 65% 0 mm
09:09 9.5 °C 3 °C 1016.1 hPa East 8 km/h 11.3 km/h 64% 0 mm
09:14 9.9 °C 3.4 °C 1015.8 hPa ENE 3.2 km/h 8 km/h 64% 0 mm
09:19 10.2 °C 3.2 °C 1015.8 hPa ENE 3.2 km/h 11.3 km/h 62% 0 mm
09:24 10.4 °C 3.2 °C 1015.8 hPa ENE 3.2 km/h 12.9 km/h 61% 0 mm
09:29 10.8 °C 3.4 °C 1015.8 hPa ENE 6.4 km/h 12.9 km/h 60% 0 mm
09:34 11.5 °C 3.8 °C 1015.5 hPa ENE 6.4 km/h 11.3 km/h 59% 0 mm
09:39 11.9 °C 4.2 °C 1015.5 hPa ESE 4.8 km/h 16.1 km/h 59% 0 mm
09:44 12.6 °C 4.3 °C 1015.5 hPa SE 3.2 km/h 9.7 km/h 57% 0 mm
09:49 12.8 °C 4 °C 1015.5 hPa East 4.8 km/h 12.9 km/h 55% 0 mm
09:54 13.1 °C 3.9 °C 1015.5 hPa East 6.4 km/h 12.9 km/h 54% 0 mm
09:59 13.7 °C 4.5 °C 1015.5 hPa NE 3.2 km/h 9.7 km/h 54% 0 mm
10:04 13.8 °C 4.3 °C 1015.1 hPa East 4.8 km/h 14.5 km/h 53% 0 mm
10:09 13.8 °C 4.1 °C 1015.1 hPa ENE 3.2 km/h 14.5 km/h 52% 0 mm
10:14 13.8 °C 3.8 °C 1015.1 hPa NE 3.2 km/h 17.7 km/h 51% 0 mm
10:19 14.4 °C 4.4 °C 1015.1 hPa ENE 6.4 km/h 16.1 km/h 51% 0 mm
10:24 14.9 °C 4.6 °C 1015.1 hPa East 6.4 km/h 16.1 km/h 50% 0 mm
10:29 15.3 °C 4.4 °C 1015.1 hPa East 4.8 km/h 12.9 km/h 48% 0 mm
10:34 15.6 °C 3.9 °C 1014.8 hPa East 6.4 km/h 16.1 km/h 46% 0 mm
10:39 15.7 °C 3.8 °C 1014.8 hPa East 8 km/h 17.7 km/h 45% 0 mm
10:44 15.8 °C 3.2 °C 1014.4 hPa East 9.7 km/h 22.5 km/h 43% 0 mm
10:49 15.4 °C 3.6 °C 1014.4 hPa SSE 12.9 km/h 17.7 km/h 45% 0 mm
10:59 15.4 °C 3.2 °C 1014.4 hPa ENE 9.7 km/h 22.5 km/h 44% 0 mm
11:04 15.6 °C 3.7 °C 1014.1 hPa ENE 4.8 km/h 19.3 km/h 45% 0 mm
11:09 15.9 °C 3.4 °C 1014.1 hPa ESE 14.5 km/h 17.7 km/h 43% 0 mm
11:14 16.6 °C 3.9 °C 1013.8 hPa ESE 17.7 km/h 27.4 km/h 43% 0 mm
11:19 16.7 °C 4 °C 1013.8 hPa ESE 25.7 km/h 25.7 km/h 43% 0 mm
11:24 16.6 °C 3.6 °C 1013.8 hPa SE 4.8 km/h 25.7 km/h 42% 0 mm
11:29 16.7 °C 3.3 °C 1013.4 hPa East 9.7 km/h 25.7 km/h 41% 0 mm
11:34 16.5 °C 3.2 °C 1013.4 hPa East 11.3 km/h 24.1 km/h 41% 0 mm
11:39 16.3 °C 3 °C 1013.1 hPa East 12.9 km/h 25.7 km/h 41% 0 mm
11:44 16.1 °C 2.8 °C 1013.1 hPa East 12.9 km/h 25.7 km/h 41% 0 mm
11:49 16.3 °C 2.7 °C 1013.1 hPa SSE 4.8 km/h 16.1 km/h 40% 0 mm
11:54 16.4 °C 3.2 °C 1013.1 hPa East 11.3 km/h 17.7 km/h 41% 0 mm
11:59 16.4 °C 3.2 °C 1013.1 hPa ESE 8 km/h 19.3 km/h 41% 0 mm
12:04 16.3 °C 2.7 °C 1012.8 hPa East 9.7 km/h 27.4 km/h 40% 0 mm
12:09 16.3 °C 3 °C 1012.8 hPa East 11.3 km/h 27.4 km/h 41% 0 mm
12:14 16.3 °C 2.3 °C 1012.8 hPa SE 4.8 km/h 20.9 km/h 39% 0 mm
12:19 16.4 °C 2.8 °C 1012.4 hPa SSE 6.4 km/h 29 km/h 40% 0 mm
12:24 16.7 °C 3 °C 1012.1 hPa NE 12.9 km/h 14.5 km/h 40% 0 mm
12:29 16.6 °C 2.2 °C 1012.1 hPa East 8 km/h 29 km/h 38% 0 mm
12:34 16.7 °C 2.7 °C 1011.7 hPa East 11.3 km/h 29 km/h 39% 0 mm
12:39 16.9 °C 2.4 °C 1011.7 hPa NE 4.8 km/h 29 km/h 38% 0 mm
12:44 16.9 °C 2.5 °C 1011.4 hPa ESE 6.4 km/h 27.4 km/h 38% 0 mm
12:54 17.3 °C 2.9 °C 1011.1 hPa SE 11.3 km/h 22.5 km/h 38% 0 mm
12:59 17.5 °C 3.4 °C 1011.1 hPa ESE 14.5 km/h 22.5 km/h 39% 0 mm
13:04 17.4 °C 2.6 °C 1011.1 hPa ESE 9.7 km/h 22.5 km/h 37% 0 mm
13:09 17.8 °C 3.3 °C 1011.1 hPa ESE 9.7 km/h 22.5 km/h 38% 0 mm
13:14 18.2 °C 2.8 °C 1010.7 hPa ESE 8 km/h 22.5 km/h 36% 0 mm
13:19 17.9 °C 3 °C 1010.7 hPa East 9.7 km/h 24.1 km/h 37% 0 mm
13:24 17.9 °C 3.3 °C 1010.7 hPa East 11.3 km/h 25.7 km/h 38% 0 mm
13:29 18.1 °C 3.1 °C 1010.7 hPa ESE 11.3 km/h 25.7 km/h 37% 0 mm
13:34 18 °C 3.4 °C 1010.4 hPa ESE 11.3 km/h 25.7 km/h 38% 0 mm
13:39 18 °C 3.4 °C 1010 hPa ESE 8 km/h 24.1 km/h 38% 0 mm
13:44 18.4 °C 4.2 °C 1010 hPa South 8 km/h 27.4 km/h 39% 0 mm
13:49 18.6 °C 3.2 °C 1010 hPa East 14.5 km/h 27.4 km/h 36% 0 mm
13:54 19.4 °C 5.1 °C 1009.7 hPa ENE 6.4 km/h 20.9 km/h 39% 0 mm
13:59 20.1 °C 4.1 °C 1009.7 hPa ESE 3.2 km/h 16.1 km/h 35% 0 mm
14:04 20.2 °C 3.8 °C 1009.4 hPa SSE 4.8 km/h 24.1 km/h 34% 0 mm
14:09 20 °C 5.6 °C 1009.4 hPa East 9.7 km/h 25.7 km/h 39% 0 mm
14:14 20.2 °C 3.8 °C 1009.4 hPa ENE 9.7 km/h 25.7 km/h 34% 0 mm
14:19 20.4 °C 4.4 °C 1009 hPa East 9.7 km/h 20.9 km/h 35% 0 mm
14:24 20.2 °C 2.9 °C 1009 hPa East 11.3 km/h 29 km/h 32% 0 mm
14:29 20.2 °C 3.4 °C 1009 hPa SSE 11.3 km/h 22.5 km/h 33% 0 mm
14:34 20.3 °C 3.1 °C 1008.7 hPa ENE 11.3 km/h 25.7 km/h 32% 0 mm
14:39 20.2 °C 3.8 °C 1008.7 hPa East 11.3 km/h 25.7 km/h 34% 0 mm
14:44 20.4 °C 4.4 °C 1008.7 hPa ESE 3.2 km/h 19.3 km/h 35% 0 mm
14:49 20.6 °C 2.9 °C 1008.4 hPa ESE 4.8 km/h 29 km/h 31% 0 mm
14:54 20.2 °C 4.3 °C 1008 hPa ENE 16.1 km/h 24.1 km/h 35% 0 mm
14:59 20.5 °C 3.7 °C 1008 hPa ENE 11.3 km/h 24.1 km/h 33% 0 mm
15:04 20.4 °C 3.6 °C 1007.7 hPa East 3.2 km/h 22.5 km/h 33% 0 mm
15:09 20.6 °C 4.2 °C 1007.7 hPa NE 6.4 km/h 22.5 km/h 34% 0 mm
15:14 20.6 °C 3.8 °C 1007.7 hPa East 11.3 km/h 30.6 km/h 33% 0 mm
15:19 20.9 °C 4.1 °C 1007.3 hPa East 11.3 km/h 30.6 km/h 33% 0 mm
15:24 21.1 °C 3.3 °C 1007.3 hPa East 11.3 km/h 25.7 km/h 31% 0 mm
15:29 20.8 °C 3.5 °C 1007 hPa ESE 11.3 km/h 25.7 km/h 32% 0 mm
15:34 20.7 °C 3.8 °C 1007 hPa ESE 9.7 km/h 22.5 km/h 33% 0 mm
15:39 20.6 °C 4.1 °C 1007 hPa SE 4.8 km/h 20.9 km/h 34% 0 mm
15:44 20.4 °C 4.1 °C 1007 hPa ESE 9.7 km/h 20.9 km/h 34% 0 mm
15:49 20 °C 3.7 °C 1006.7 hPa NE 4.8 km/h 25.7 km/h 34% 0 mm
15:54 19.9 °C 3.6 °C 1006.7 hPa East 12.9 km/h 27.4 km/h 34% 0 mm
15:59 19.7 °C 3.8 °C 1006.3 hPa SE 11.3 km/h 20.9 km/h 35% 0 mm
16:04 19.8 °C 4.3 °C 1006.3 hPa NE 11.3 km/h 22.5 km/h 36% 0 mm
16:09 19.8 °C 3.9 °C 1006 hPa ENE 6.4 km/h 20.9 km/h 35% 0 mm
16:14 19.8 °C 4.3 °C 1006 hPa SE 4.8 km/h 16.1 km/h 36% 0 mm
16:19 19.7 °C 3.8 °C 1006 hPa East 8 km/h 20.9 km/h 35% 0 mm
16:24 19.6 °C 4.1 °C 1005.6 hPa East 8 km/h 20.9 km/h 36% 0 mm
16:29 19.5 °C 4 °C 1005.6 hPa East 8 km/h 17.7 km/h 36% 0 mm
16:34 19.4 °C 4.4 °C 1005.6 hPa East 9.7 km/h 22.5 km/h 37% 0 mm
16:39 19.4 °C 4.4 °C 1005.6 hPa East 9.7 km/h 22.5 km/h 37% 0 mm
16:44 19.4 °C 4.4 °C 1005.6 hPa East 9.7 km/h 17.7 km/h 37% 0 mm
16:49 19.5 °C 4.4 °C 1005.3 hPa East 8 km/h 22.5 km/h 37% 0 mm
16:54 19.4 °C 4.4 °C 1005.3 hPa ENE 6.4 km/h 16.1 km/h 37% 0 mm
16:59 19.5 °C 4.8 °C 1005.3 hPa ENE 16.1 km/h 16.1 km/h 38% 0 mm
17:04 19.5 °C 4.8 °C 1005.3 hPa East 9.7 km/h 20.9 km/h 38% 0 mm
17:09 19.6 °C 4.9 °C 1005.3 hPa East 12.9 km/h 22.5 km/h 38% 0 mm
17:14 19.6 °C 4.8 °C 1005.3 hPa East 9.7 km/h 17.7 km/h 38% 0 mm
17:19 19.6 °C 4.8 °C 1005 hPa North 3.2 km/h 22.5 km/h 38% 0 mm
17:24 19.5 °C 5.2 °C 1005 hPa ENE 8 km/h 22.5 km/h 39% 0 mm
17:29 19.4 °C 5.1 °C 1004.6 hPa ENE 8 km/h 17.7 km/h 39% 0 mm
17:34 19.4 °C 4.7 °C 1004.6 hPa ENE 8 km/h 17.7 km/h 38% 0 mm
17:39 19.4 °C 5.1 °C 1004.6 hPa ENE 8 km/h 17.7 km/h 39% 0 mm
17:44 19.4 °C 5.1 °C 1004.6 hPa ENE 6.4 km/h 14.5 km/h 39% 0 mm
17:49 19.4 °C 5.1 °C 1004.3 hPa ENE 8 km/h 22.5 km/h 39% 0 mm
17:54 19.4 °C 5.1 °C 1004.3 hPa East 9.7 km/h 14.5 km/h 39% 0 mm
17:59 19.4 °C 5.4 °C 1004.3 hPa East 11.3 km/h 20.9 km/h 40% 0 mm
18:04 19.3 °C 5.4 °C 1004.3 hPa NE 6.4 km/h 16.1 km/h 40% 0 mm
18:09 19.1 °C 5.9 °C 1004.3 hPa NE 6.4 km/h 20.9 km/h 42% 0 mm
18:14 18.8 °C 5.6 °C 1003.9 hPa NE 14.5 km/h 19.3 km/h 42% 0 mm
18:19 18.7 °C 5.8 °C 1003.9 hPa ENE 12.9 km/h 17.7 km/h 43% 0 mm
18:24 18.6 °C 6.1 °C 1004.3 hPa NE 8 km/h 17.7 km/h 44% 0 mm
18:29 18.3 °C 5.8 °C 1004.3 hPa NE 11.3 km/h 24.1 km/h 44% 0 mm
18:34 18.1 °C 5.7 °C 1003.9 hPa NE 12.9 km/h 24.1 km/h 44% 0 mm
18:39 17.9 °C 5.8 °C 1003.9 hPa ENE 11.3 km/h 19.3 km/h 45% 0 mm
18:44 17.8 °C 5.7 °C 1004.3 hPa ESE 6.4 km/h 11.3 km/h 45% 0 mm
18:49 17.7 °C 5.6 °C 1003.9 hPa NE 6.4 km/h 14.5 km/h 45% 0 mm
18:54 17.6 °C 5.5 °C 1003.9 hPa East 11.3 km/h 14.5 km/h 45% 0 mm
18:59 17.5 °C 5.7 °C 1003.9 hPa East 6.4 km/h 14.5 km/h 46% 0 mm
19:04 17.4 °C 5.7 °C 1003.9 hPa ENE 4.8 km/h 12.9 km/h 46% 0 mm
19:09 17.3 °C 5.6 °C 1003.6 hPa NE 6.4 km/h 16.1 km/h 46% 0 mm
19:14 17.2 °C 5.8 °C 1003.3 hPa ESE 11.3 km/h 14.5 km/h 47% 0 mm
19:19 17 °C 5.6 °C 1003.3 hPa NNE 4.8 km/h 14.5 km/h 47% 0 mm
19:24 16.9 °C 5.5 °C 1002.9 hPa NE 6.4 km/h 17.7 km/h 47% 0 mm
19:29 16.8 °C 5.7 °C 1002.9 hPa ENE 11.3 km/h 20.9 km/h 48% 0 mm
19:34 16.8 °C 5.7 °C 1002.9 hPa ENE 8 km/h 20.9 km/h 48% 0 mm
19:39 16.7 °C 5.6 °C 1002.9 hPa ENE 6.4 km/h 14.5 km/h 48% 0 mm
19:44 16.6 °C 5.8 °C 1002.6 hPa ENE 6.4 km/h 14.5 km/h 49% 0 mm
19:49 16.6 °C 5.8 °C 1002.6 hPa ENE 6.4 km/h 11.3 km/h 49% 0 mm
19:54 16.5 °C 5.7 °C 1002.6 hPa ENE 3.2 km/h 9.7 km/h 49% 0 mm
19:59 16.4 °C 6 °C 1002.6 hPa ENE 1.6 km/h 12.9 km/h 50% 0 mm
20:04 16.4 °C 5.9 °C 1002.6 hPa East 3.2 km/h 12.9 km/h 50% 0 mm
20:09 16.4 °C 5.9 °C 1002.6 hPa East 6.4 km/h 16.1 km/h 50% 0 mm
20:14 16.4 °C 6 °C 1002.6 hPa East 6.4 km/h 16.1 km/h 50% 0 mm
20:19 16.4 °C 5.7 °C 1002.6 hPa East 6.4 km/h 14.5 km/h 49% 0 mm
20:24 16.4 °C 6 °C 1002.3 hPa ESE 4.8 km/h 11.3 km/h 50% 0 mm
20:29 16.6 °C 6.1 °C 1002.3 hPa SE 4.8 km/h 22.5 km/h 50% 0 mm
20:34 16.6 °C 6.1 °C 1002.6 hPa ESE 6.4 km/h 22.5 km/h 50% 0 mm
20:39 16.5 °C 6.3 °C 1002.6 hPa SE 4.8 km/h 12.9 km/h 51% 0 mm
20:44 16.6 °C 6.4 °C 1002.6 hPa SE 6.4 km/h 12.9 km/h 51% 0 mm
20:49 16.6 °C 6.9 °C 1002.6 hPa SSE 6.4 km/h 17.7 km/h 53% 0 mm
20:54 16.7 °C 7.3 °C 1002.6 hPa South 6.4 km/h 29 km/h 54% 0 mm
20:59 16.7 °C 7.6 °C 1002.6 hPa SE 6.4 km/h 20.9 km/h 55% 0 mm
21:04 16.6 °C 8.3 °C 1002.6 hPa SSE 9.7 km/h 25.7 km/h 58% 0 mm
21:09 16.4 °C 8.6 °C 1002.6 hPa SSE 4.8 km/h 20.9 km/h 60% 0 mm
21:14 16.1 °C 9.1 °C 1002.3 hPa SSE 9.7 km/h 20.9 km/h 63% 0 mm
21:19 15.9 °C 9.1 °C 1002.3 hPa SSE 8 km/h 19.3 km/h 64% 0 mm
21:24 15.6 °C 9.3 °C 1002.3 hPa SSE 6.4 km/h 14.5 km/h 66% 0.25 mm
21:29 15.4 °C 9.5 °C 1001.9 hPa SE 6.4 km/h 12.9 km/h 68% 0.25 mm
21:34 15.1 °C 9.4 °C 1001.9 hPa SE 6.4 km/h 12.9 km/h 69% 0.25 mm
21:39 15 °C 9.6 °C 1001.9 hPa SE 4.8 km/h 12.9 km/h 70% 0.25 mm
21:49 14.7 °C 9.7 °C 1001.6 hPa SE 3.2 km/h 8 km/h 72% 0.51 mm
21:54 14.6 °C 9.6 °C 1001.6 hPa SE 8 km/h 9.7 km/h 72% 0.51 mm
21:59 14.4 °C 9.6 °C 1001.6 hPa SSE 1.6 km/h 8 km/h 73% 0.51 mm
22:04 14.3 °C 9.8 °C 1001.6 hPa SSE 1.6 km/h 8 km/h 74% 0.51 mm
22:09 14.2 °C 9.7 °C 1001.2 hPa SE 3.2 km/h 4.8 km/h 74% 0.51 mm
22:14 14.2 °C 9.8 °C 1001.2 hPa East 1.6 km/h 8 km/h 75% 0.51 mm
22:19 14.1 °C 9.7 °C 1001.2 hPa ESE 1.6 km/h 8 km/h 75% 0.51 mm
22:24 14 °C 9.8 °C 1001.2 hPa East 1.6 km/h 4.8 km/h 76% 0.51 mm
22:29 13.9 °C 10 °C 1000.9 hPa East 1.6 km/h 4.8 km/h 77% 0.51 mm
22:34 13.8 °C 9.9 °C 1000.9 hPa East 1.6 km/h 4.8 km/h 77% 0.51 mm
22:39 13.8 °C 10 °C 1000.9 hPa ENE 1.6 km/h 4.8 km/h 78% 0.76 mm
22:44 13.7 °C 10.2 °C 1000.6 hPa ENE 1.6 km/h 3.2 km/h 79% 0.51 mm
22:49 13.6 °C 10 °C 1000.6 hPa NE 3.2 km/h 6.4 km/h 79% 0.76 mm
22:54 13.5 °C 10.1 °C 1000.6 hPa NE 1.6 km/h 6.4 km/h 80% 0.76 mm
22:59 13.4 °C 10.2 °C 1000.2 hPa Calm   4.8 km/h 81% 1.02 mm
23:04 13.3 °C 10.3 °C 1000.2 hPa Calm     82% 1.27 mm
23:09 13.2 °C 10.2 °C 1000.2 hPa Calm     82% 1.52 mm
23:14 13.2 °C 10.3 °C 999.9 hPa Calm     83% 1.78 mm
23:19 13.1 °C 10.4 °C 999.9 hPa NE 3.2 km/h 4.8 km/h 84% 2.29 mm
23:29 12.7 °C 10.2 °C 999.9 hPa NE 3.2 km/h 6.4 km/h 85% 3.3 mm
23:34 12.6 °C 10.4 °C 999.5 hPa NE 3.2 km/h 8 km/h 87% 4.06 mm
23:39 12.5 °C 10.4 °C 999.5 hPa NE 3.2 km/h 8 km/h 87% 4.57 mm
23:44 12.4 °C 10.3 °C 999.2 hPa NE 3.2 km/h 8 km/h 87% 5.33 mm
23:49 12.4 °C 10.3 °C 999.2 hPa NE 4.8 km/h 8 km/h 87% 5.84 mm
23:54 12.4 °C 10.5 °C 999.2 hPa NE 6.4 km/h 8 km/h 88% 6.35 mm
23:59 12.4 °C 10.5 °C 998.9 hPa ENE 4.8 km/h 9.7 km/h 88% 6.35 mm
Buffalo, New York, USA
Compliments of Weather Underground - 2.5 mb